Location: Long Geng
(2.6167°N, 114.1333°E)
Time: 01:10:56
(UTC+00:00)

Cosmos 2034 Rocket - Pass Details

Date: 14 May 2021
Orbit: 957 x 1001 km, 82.9° (Epoch: 19 June)

Event Time Altitude Azimuth Distance (km) Brightness Sun altitude
Rises 20:56:21 0° 342° (NNW) 3,677 7.1 -18.8°
Reaches altitude 10° 20:59:02 10° 335° (NNW) 2,724 6.3 -18.2°
Maximum altitude 21:04:46 40° 268° (W) 1,405 4.4 -16.8°
Drops below altitude 10° 21:10:30 10° 200° (SSW) 2,704 6.0 -15.5°
Sets 21:13:09 0° 192° (SSW) 3,647 6.7 -14.9°
